"2009-07-31 00:00:00",1109089,1.652,216.9,13.96,0.216,12.09,105.3017,12.84,13.79,73.94,0,110.6,13.27,13.64,178.9
"2009-07-31 00:00:30",1109090,1.395,195.2,16.49,0.16,12.25,105.3023,12.85,13.8,73.99,0,110.6,13.27,13.64,157.2
"2009-07-31 00:01:00",1109091,1.573,174.5,7.486,0.156,12.31,105.3186,12.89,13.81,73.87,0,110.6,13.27,13.68,136.5
"2009-07-31 00:01:30",1109092,1.569,162.4,9.36,0.145,12.31,105.3351,12.93,13.84,73.74,0,110.6,13.27,13.73,124.4
"2009-07-31 00:02:00",1109093,1.515,187.1,6.145,0.1,12.33,105.3481,12.96,13.87,73.56,0,110.6,13.27,13.76,149.1
"2009-07-31 00:02:30",1109094,1.494,187,10.83,0.214,12.46,105.3665,13.01,13.9,73.44,0,110.6,13.27,13.81,149.0
"2009-07-31 00:03:00",1109095,1.25,172.2,4.642,0.34,12.43,105.3774,13.04,13.93,73.31,0,110.6,13.27,13.84,134.2
"2009-07-31 00:03:30",1109096,1.829,198.3,15.26,0.203,12.41,105.3979,13.09,13.98,73.28,0,110.6,13.27,13.89,160.3
"2009-07-31 00:04:00",1109097,2.477,207.4,7.656,0.332,12.53,105.4141,13.13,14.02,73.29,0,110.6,13.27,13.93,169.4
"2009-07-31 00:04:30",1109098,2.34,198.8,8.63,0.096,12.63,105.4255,13.16,14.05,73.15,0,110.6,13.27,13.96,160.8
"2009-07-31 00:05:00",1109099,2.361,182.7,11.03,0.264,12.8,105.44,13.2,14.1,73.11,0,110.6,13.27,14.00,144.7
"2009-07-31 00:05:30",1109100,2.355,180.7,4.012,0.223,12.92,105.4542,13.24,14.14,72.87,0,110.6,13.27,14.03,142.7
"2009-07-31 00:06:00",1109101,2.737,176.3,4.862,0.295,13.04,105.4717,13.28,14.17,72.39,0,110.6,13.28,14.08,138.3
"2009-07-31 00:06:30",1109102,2.835,166.2,6.187,0.293,13.03,105.485,13.31,14.2,71.69,0,110.6,13.28,14.11,128.2
"2009-07-31 00:07:00",1109103,2.95,163.8,4.051,0.093,12.97,105.4906,13.33,14.25,71.15,0,110.6,13.28,14.13,125.8
"2009-07-31 00:07:30",1109104,2.645,176.7,6.768,0.184,13.16,105.5206,13.41,14.28,71.01,0,110.6,13.28,14.20,138.7
"2009-07-31 00:08:00",1109105,3.549,204.1,18.33,1.464,15.58,105.5205,13.4,14.39,71.17,0,110.6,13.24,14.20,166.1
"2009-07-31 00:08:30",1109106,4.423,211.2,9,1.156,17.56,105.52,13.4,14.6,71.31,0,110.6,13.24,14.20,173.2
"2009-07-31 00:09:00",1109107,2.855,198.5,7.729,1.288,14.07,105.522,13.41,14.35,71.02,0,110.6,13.23,14.21,160.5
"2009-07-31 00:09:30",1109108,2.174,202.9,5.042,0.223,12.99,105.5253,13.42,14.48,71.03,0,110.6,13.27,14.22,164.9
"2009-07-31 00:10:00",1109109,3.68,201.5,7.721,1.202,14.18,105.5267,13.42,14.42,70.77,0,110.6,13.23,14.22,163.5
"2009-07-31 00:10:30",1109110,2.182,191.4,5.283,0.111,11.78,105.5341,13.44,14.38,70.7,0,110.6,13.27,14.24,153.4
"2009-07-31 00:11:00",1109111,2.378,188,5.883,0.204,11.58,105.5502,13.48,14.39,70.62,0,110.6,13.27,14.28,150.0
"2009-07-31 00:11:30",1109112,1.92,192.6,4.459,0.155,11.43,105.5641,13.52,14.42,70.6,0,110.6,13.27,14.32,154.6
"2009-07-31 00:12:00",1109113,2.143,192,4.786,0.127,11.56,105.5671,13.52,14.46,70.44,0,110.6,13.27,14.32,154.0
"2009-07-31 00:12:30",1109114,2.513,187.4,4.651,0.119,11.88,105.5677,13.53,14.46,70.05,0,110.6,13.27,14.32,149.4
"2009-07-31 00:13:00",1109115,1.999,206.8,17.01,0.359,11.92,105.5689,13.53,14.48,69.81,0,110.6,13.27,14.33,168.8
"2009-07-31 00:13:30",1109116,2.408,217.8,4.97,0.18,12.15,105.5689,13.53,14.49,70.06,0,110.6,13.27,14.33,179.8
"2009-07-31 00:14:00",1109117,2.305,200.8,9.56,0.213,12.44,105.5692,13.53,14.49,70.24,0,110.6,13.27,14.33,162.8
"2009-07-31 00:14:30",1109118,2.266,227.3,6.401,0.399,12.58,105.5704,13.53,14.47,70.14,0,110.6,13.27,14.33,189.3
"2009-07-31 00:15:00",1109119,2.058,205.1,19.49,0.262,12.66,105.5715,13.54,14.48,70.14,0,110.6,13.27,14.33,167.1
"2009-07-31 00:15:30",1109120,2.161,191.5,3.139,0.087,12.72,105.5692,13.53,14.49,69.52,0,110.6,13.27,14.33,153.5
"2009-07-31 00:16:00",1109121,2.236,202.8,13.69,0.191,12.89,105.5746,13.54,14.52,68.98,0,110.6,13.27,14.34,164.8
"2009-07-31 00:16:30",1109122,2.458,206.3,4.884,0.268,13.02,105.5907,13.58,14.52,69.12,0,110.6,13.27,14.38,168.3
"2009-07-31 00:17:00",1109123,2.823,211.4,4.542,0.608,13.92,105.5986,13.6,14.68,69.15,0,110.6,13.23,14.40,173.4
"2009-07-31 00:17:30",1109124,4.695,236.6,12.37,0.943,18.68,105.6042,13.62,14.87,69.44,0,110.6,13.23,14.42,198.6
"2009-07-31 00:18:00",1109125,3.385,225.4,19.21,1.262,17.13,105.6062,13.62,14.79,69.7,0,110.6,13.23,14.42,187.4
"2009-07-31 00:18:30",1109126,0.944,222.1,9.69,0.163,12.37,105.6062,13.62,14.57,69.68,0,110.6,13.26,14.42,184.1
"2009-07-31 00:19:00",1109127,1.996,204.4,9.39,1.319,13.2,105.6062,13.62,14.58,69.8,0,110.6,13.23,14.42,166.4
"2009-07-31 00:19:30",1109128,1.689,193.7,8.72,1.318,13.13,105.6062,13.62,14.79,70.06,0,110.6,13.23,14.42,155.7
"2009-07-31 00:20:00",1109129,2.195,194.8,9.95,0.95,12.52,105.6062,13.62,14.59,69.9,0,110.6,13.23,14.42,156.8
"2009-07-31 00:20:30",1109130,2.576,215.3,11.63,0.444,11.2,105.5916,13.59,14.6,69.93,0,110.6,13.26,14.39,177.3
"2009-07-31 00:21:00",1109131,2.26,194.3,15.62,0.294,11.5,105.5494,13.48,14.55,70.06,0,110.6,13.26,14.28,156.3
"2009-07-31 00:21:30",1109132,1.603,192.5,11.24,0.34,11.82,105.5083,13.37,14.51,70.2,0,110.6,13.27,14.17,154.5
"2009-07-31 00:22:00",1109133,1.812,192,9.25,0.25,12.06,105.4632,13.26,14.41,70.58,0,110.6,13.27,14.06,154.0
"2009-07-31 00:22:30",1109134,2.016,208.3,3.754,0.095,12.28,105.423,13.16,14.33,70.76,0,110.6,13.27,13.95,170.3
"2009-07-31 00:23:00",1109135,2.169,217.3,7.623,0.174,12.72,105.392,13.08,14.24,72.08,0,110.6,13.27,13.87,179.3
"2009-07-31 00:23:30",1109136,1.729,219.4,7.198,0.164,12.98,105.3681,13.01,14.18,73.24,0,110.6,13.27,13.81,181.4
"2009-07-31 00:24:00",1109137,1.662,219.6,6.05,0.199,13.17,105.3428,12.95,14.12,74.01,0,110.6,13.28,13.75,181.6
"2009-07-31 00:24:30",1109138,3.591,230.5,8.95,1.382,15.91,105.336,12.93,14.34,75.3,0,110.6,13.24,13.73,192.5
"2009-07-31 00:25:00",1109139,3.945,241.1,9.01,1.389,16.25,105.3335,12.93,14.22,75.62,0,110.6,13.24,13.72,203.1
"2009-07-31 00:25:30",1109140,3.614,244.2,6.21,1.392,14.65,105.3357,12.93,14.18,75.73,0,110.6,13.24,13.73,206.2
"2009-07-31 00:26:00",1109141,2.591,245.2,4.592,0.55,12.1,105.336,12.93,13.98,75.67,0,110.6,13.24,13.73,207.2
"2009-07-31 00:26:30",1109142,3.762,247.3,6.135,1.245,14.05,105.336,12.93,14.15,75.86,0,110.6,13.24,13.73,209.3
"2009-07-31 00:27:00",1109143,2.535,242.7,5.574,0.174,11.52,105.3357,12.93,13.96,75.53,0,110.6,13.27,13.73,204.7
"2009-07-31 00:27:30",1109144,2.309,237.2,4.21,0.182,11.29,105.336,12.93,13.97,75.42,0,110.6,13.27,13.73,199.2
"2009-07-31 00:28:00",1109145,2.366,233.4,4.637,0.175,11.37,105.3361,12.93,13.96,75.35,0,110.6,13.28,13.73,195.4
"2009-07-31 00:28:30",1109146,2.482,229.5,4.582,0.204,11.54,105.3357,12.93,13.96,75.23,0,110.6,13.28,13.73,191.5
"2009-07-31 00:29:00",1109147,2.541,228.9,4.763,0.232,11.88,105.3333,12.93,13.96,74.77,0,110.6,13.28,13.72,190.9
"2009-07-31 00:29:30",1109148,2.439,242.9,3.654,0.156,12.07,105.3328,12.92,13.96,74.46,0,110.6,13.28,13.72,204.9
"2009-07-31 00:30:00",1109149,2.162,241.9,6.203,0.147,12.17,105.3277,12.91,13.94,74.43,0,110.6,13.28,13.71,203.9
"2009-07-31 00:30:30",1109150,1.738,234.8,6.046,0.35,12.49,105.3302,12.92,13.96,74.46,0,110.6,13.28,13.71,196.8
"2009-07-31 00:31:00",1109151,1.347,217,8.94,0.135,12.41,105.3329,12.92,13.96,74.44,0,110.6,13.28,13.72,179.0
"2009-07-31 00:31:30",1109152,1.335,197.6,5.984,0.412,12.65,105.3396,12.94,13.97,74.34,0,110.6,13.28,13.74,159.6
"2009-07-31 00:32:00",1109153,2.233,197.9,3.027,0.169,12.76,105.3483,12.96,13.94,73.83,0,110.6,13.28,13.76,159.9
"2009-07-31 00:32:30",1109154,2.274,202.8,3.727,0.082,13,105.3519,12.97,13.96,73.21,0,110.6,13.28,13.77,164.8
"2009-07-31 00:33:00",1109155,2.425,200.7,6.845,0.136,13.19,105.3566,12.99,13.96,72.98,0,110.6,13.28,13.78,162.7
"2009-07-31 00:33:30",1109156,3.595,213.8,7.921,1.299,15.92,105.3589,12.99,14.15,73,0,110.6,13.25,13.79,175.8
"2009-07-31 00:34:00",1109157,4.028,214.2,7.852,1.145,16.76,105.3606,13,14.16,73,0,110.6,13.25,13.79,176.2
"2009-07-31 00:34:30",1109158,1.711,208.2,4.353,0.331,12.78,105.3633,13,13.99,72.88,0,110.6,13.25,13.80,170.2
"2009-07-31 00:35:00",1109159,2.83,195.1,9.41,1.6,15.39,105.3648,13.01,14.19,73.03,0,110.5,13.25,13.80,157.1
"2009-07-31 00:35:30",1109160,3.547,210,8.35,1.421,15.2,105.3672,13.01,14.19,72.56,0,110.6,13.25,13.81,172.0
"2009-07-31 00:36:00",1109161,1.677,203.2,5.686,0.589,12.54,105.3678,13.01,14.16,72.03,0,110.5,13.25,13.81,165.2
"2009-07-31 00:36:30",1109162,1.551,201.1,6.16,0.208,11.26,105.3675,13.01,14.02,71.49,0,110.5,13.28,13.81,163.1
"2009-07-31 00:37:00",1109163,1.616,200.6,4.232,0.123,10.91,105.3717,13.02,14.02,71.14,0,110.5,13.28,13.82,162.6
"2009-07-31 00:37:30",1109164,1.52,192.5,8.44,0.121,10.93,105.3788,13.04,14.03,70.88,0,110.5,13.28,13.84,154.5
"2009-07-31 00:38:00",1109165,1.428,195.5,5.22,0.096,11.1,105.3947,13.08,14.04,70.75,0,110.5,13.28,13.88,157.5
"2009-07-31 00:38:30",1109166,1.093,186.6,10.61,0.123,11.55,105.4034,13.11,14.05,70.69,0,110.5,13.28,13.90,148.6
"2009-07-31 00:39:00",1109167,1.192,178.5,3.707,0.149,11.9,105.4054,13.11,14.05,70.65,0,110.5,13.28,13.91,140.5
"2009-07-31 00:39:30",1109168,1.232,187.2,6.282,0.149,12.23,105.4054,13.11,14.08,70.56,0,110.5,13.28,13.91,149.2
"2009-07-31 00:40:00",1109169,1.002,182,4.983,0.115,12.29,105.4051,13.11,14.1,70.44,0,110.5,13.29,13.91,144.0
"2009-07-31 00:40:30",1109170,1.2,171,2.187,0.102,12.76,105.4054,13.11,14.11,70.37,0,110.5,13.29,13.91,133.0
"2009-07-31 00:41:00",1109171,1.345,158.5,6.751,0.053,13.19,105.4062,13.11,14.11,70.34,0,110.5,13.29,13.91,120.5
"2009-07-31 00:41:30",1109172,1.636,162.3,4.75,0.33,13.37,105.4161,13.14,14.13,70.01,0,110.5,13.29,13.94,124.3
"2009-07-31 00:42:00",1109173,1.829,170.7,5.546,0.21,13.53,105.4285,13.17,14.14,69.51,0,110.5,13.29,13.97,132.7
"2009-07-31 00:42:30",1109174,3.811,178.2,7.715,1.245,17.23,105.4383,13.19,14.42,69.44,0,110.5,13.25,13.99,140.2
"2009-07-31 00:43:00",1109175,2.93,173.2,7.403,1.355,15.49,105.4392,13.2,14.33,69.18,0,110.5,13.25,13.99,135.2
"2009-07-31 00:43:30",1109176,1.963,173.5,4.487,0.13,12.86,105.4392,13.2,14.17,69.04,0,110.5,13.29,13.99,135.5
"2009-07-31 00:44:00",1109177,1.867,171.6,5.595,0.166,12.59,105.4392,13.2,14.21,69.09,0,110.5,13.28,13.99,133.6
"2009-07-31 00:44:30",1109178,2.013,167.9,3.254,0.09,12.75,105.4392,13.2,14.2,69,0,110.5,13.29,13.99,129.9
"2009-07-31 00:45:00",1109179,2.971,172.1,8.75,1.314,14.64,105.4392,13.2,14.35,68.93,0,110.5,13.25,13.99,134.1
"2009-07-31 00:45:30",1109180,3.765,170,7.936,1.295,16.41,105.4392,13.2,14.48,68.75,0,110.5,13.25,13.99,132.0
"2009-07-31 00:46:00",1109181,2.27,156.1,3.907,0.859,12.73,105.4392,13.2,14.22,68.23,0,110.5,13.25,13.99,118.1
"2009-07-31 00:46:30",1109182,1.974,153.7,2.431,0.045,11.97,105.4392,13.2,14.21,67.97,0,110.5,13.29,13.99,115.7
"2009-07-31 00:47:00",1109183,1.949,155.7,2.097,0.108,11.93,105.4392,13.2,14.23,67.78,0,110.5,13.29,13.99,117.7
"2009-07-31 00:47:30",1109184,1.843,162.4,2.073,0.077,12.34,105.4392,13.2,14.22,67.74,0,110.5,13.29,13.99,124.4
"2009-07-31 00:48:00",1109185,1.827,162.9,1.499,0.092,12.6,105.4392,13.2,14.23,67.63,0,110.5,13.29,13.99,124.9
"2009-07-31 00:48:30",1109186,1.757,167.3,1.666,0.123,12.9,105.4392,13.2,14.24,67.58,0,110.5,13.29,13.99,129.3
"2009-07-31 00:49:00",1109187,1.712,169.9,2.325,0.104,13.13,105.4392,13.2,14.24,67.56,0,110.5,13.29,13.99,131.9
"2009-07-31 00:49:30",1109188,2.055,175.2,3.524,0.496,13.27,105.4392,13.2,14.28,67.61,0,110.5,13.26,13.99,137.2
"2009-07-31 00:50:00",1109189,4.014,187,6.949,1.264,17.12,105.4392,13.2,14.51,67.89,0,110.5,13.26,13.99,149.0
"2009-07-31 00:50:30",1109190,2.958,179.5,6.85,1.246,14.67,105.4413,13.2,14.31,67.74,0,110.5,13.26,14.00,141.5
"2009-07-31 00:51:00",1109191,2.091,172.2,2.788,0.086,12.76,105.4422,13.2,14.25,67.81,0,110.5,13.28,14.00,134.2
"2009-07-31 00:51:30",1109192,1.795,173.5,3.281,0.15,12.72,105.4469,13.22,14.26,68.1,0,110.5,13.28,14.01,135.5
"2009-07-31 00:52:00",1109193,1.672,180.1,10.67,0.109,12.72,105.4508,13.23,14.25,68.27,0,110.5,13.28,14.02,142.1
"2009-07-31 00:52:30",1109194,1.733,189,8.26,0.138,12.87,105.4567,13.24,14.26,68.34,0,110.5,13.28,14.04,151.0
"2009-07-31 00:53:00",1109195,2.234,183.1,7.08,1.035,13.89,105.4594,13.25,14.25,68.41,0,110.5,13.25,14.05,145.1
"2009-07-31 00:53:30",1109196,1.741,186.5,4.651,0.728,13.66,105.4609,13.25,14.36,68.6,0,110.5,13.25,14.05,148.5
"2009-07-31 00:54:00",1109197,3.134,203.4,8.77,1.36,16.89,105.462,13.26,14.54,68.89,0,110.5,13.25,14.05,165.4
"2009-07-31 00:54:30",1109198,2.115,203.7,4.871,1.343,14.02,105.459,13.25,14.25,68.74,0,110.5,13.25,14.05,165.7
"2009-07-31 00:55:00",1109199,1.054,199.4,3.849,0.083,12.12,105.4509,13.23,14.24,68.82,0,110.5,13.29,14.02,161.4
"2009-07-31 00:55:30",1109200,0.994,208.5,3.192,0.054,11.96,105.4458,13.21,14.24,68.9,0,110.5,13.29,14.01,170.5
"2009-07-31 00:56:00",1109201,0.924,204.4,2.489,0.058,12.08,105.4438,13.21,14.23,68.92,0,110.5,13.3,14.01,166.4
"2009-07-31 00:56:30",1109202,0.839,200.5,4.631,0.096,12.23,105.441,13.2,14.24,68.98,0,110.5,13.3,14.00,162.5
"2009-07-31 00:57:00",1109203,0.668,192,5.41,0.08,12.61,105.441,13.2,14.22,69.02,0,110.5,13.3,14.00,154.0
"2009-07-31 00:57:30",1109204,1.258,201.6,8.6,1.065,13.86,105.441,13.2,14.39,69.23,0,110.5,13.26,14.00,163.6
"2009-07-31 00:58:00",1109205,2.896,212.9,6.964,1.256,16.64,105.441,13.2,14.41,69.32,0,110.5,13.26,14.00,174.9
"2009-07-31 00:58:30",1109206,1.964,211.2,10.91,1.395,14.62,105.441,13.2,14.32,69.25,0,110.5,13.26,14.00,173.2
"2009-07-31 00:59:00",1109207,0.772,197.5,3.399,0.134,12.24,105.441,13.2,14.23,69.08,0,110.5,13.3,14.00,159.5
"2009-07-31 00:59:30",1109208,0.9,194.9,4.97,0.074,11.85,105.441,13.2,14.24,69.12,0,110.5,13.3,14.00,156.9
"2009-07-31 01:00:00",1109209,0.568,192.7,6.058,0.075,12.15,105.441,13.2,14.23,69.25,0,110.5,13.3,14.00,154.7
"2009-07-31 01:00:30",1109210,0.425,194.7,2.729,0.071,12.05,105.434,13.18,14.23,69.58,0,110.5,13.3,13.98,156.7
"2009-07-31 01:01:00",1109211,0.375,185.8,7.102,0.077,12.3,105.4176,13.14,14.2,69.76,0,110.5,13.3,13.94,147.8
"2009-07-31 01:01:30",1109212,0.26,214.8,14.71,0.113,12.42,105.4115,13.13,14.18,69.88,0,110.5,13.31,13.92,176.8
"2009-07-31 01:02:00",1109213,0.257,208.5,11.69,0.069,12.5,105.4103,13.12,14.18,70.11,0,110.5,13.31,13.92,170.5
"2009-07-31 01:02:30",1109214,0.231,216.5,10.43,0.066,12.82,105.4089,13.12,14.19,70.18,0,110.5,13.31,13.92,178.5
"2009-07-31 01:03:00",1109215,0.365,220.4,6.463,0.102,12.91,105.4078,13.12,14.17,70.09,0,110.5,13.31,13.91,182.4
"2009-07-31 01:03:30",1109216,0.839,228.1,3.492,0.134,13.15,105.4075,13.12,14.18,69.94,0,110.5,13.31,13.91,190.1
"2009-07-31 01:04:00",1109217,1.049,227.1,2.596,0.135,13.33,105.4072,13.11,14.17,69.83,0,110.5,13.31,13.91,189.1
"2009-07-31 01:04:30",1109218,1.15,239.1,3.903,0.55,14.09,105.4072,13.11,14.34,69.92,0,110.5,13.28,13.91,201.1
"2009-07-31 01:05:00",1109219,2.913,242.5,7.65,1.279,16.52,105.4072,13.11,14.31,69.86,0,110.5,13.28,13.91,204.5
"2009-07-31 01:05:30",1109220,2.492,241,7.834,1.38,15.72,105.4084,13.12,14.38,69.91,0,110.5,13.27,13.92,203.0
"2009-07-31 01:06:00",1109221,1.035,239.3,3.455,0.041,12.42,105.4078,13.12,14.19,69.68,0,110.5,13.31,13.91,201.3
"2009-07-31 01:06:30",1109222,0.944,233.3,4.656,0.058,12.13,105.4108,13.12,14.18,69.65,0,110.5,13.31,13.92,195.3
"2009-07-31 01:07:00",1109223,1.144,226.6,2.58,0.063,12.09,105.4129,13.13,14.18,69.65,0,110.5,13.31,13.93,188.6
"2009-07-31 01:07:30",1109224,2.284,224.4,5.178,1.362,14.29,105.4164,13.14,14.31,69.79,0,110.5,13.27,13.94,186.4
"2009-07-31 01:08:00",1109225,1.402,214.8,3.739,0.495,12.93,105.4188,13.14,14.3,69.75,0,110.5,13.27,13.94,176.8
"2009-07-31 01:08:30",1109226,1.354,206.9,2.408,0.509,12.49,105.4224,13.15,14.23,69.66,0,110.5,13.27,13.95,168.9
"2009-07-31 01:09:00",1109227,2.392,212.3,8.09,1.363,14.42,105.4256,13.16,14.32,69.73,0,110.5,13.27,13.96,174.3
"2009-07-31 01:09:30",1109228,1.345,199.7,1.552,0.07,12.09,105.428,13.17,14.18,69.63,0,110.5,13.3,13.97,161.7
"2009-07-31 01:10:00",1109229,1.399,198.3,3.102,0.064,11.94,105.4304,13.17,14.18,69.58,0,110.5,13.3,13.97,160.3
"2009-07-31 01:10:30",1109230,1.435,188.8,2.764,0.04,12.02,105.434,13.18,14.2,69.53,0,110.5,13.3,13.98,150.8
"2009-07-31 01:11:00",1109231,1.249,187.6,2.638,0.044,12.35,105.4345,13.18,14.2,69.55,0,110.5,13.3,13.98,149.6
"2009-07-31 01:11:30",1109232,1.241,186.1,1.72,0.068,12.44,105.4348,13.19,14.19,69.63,0,110.5,13.3,13.98,148.1
"2009-07-31 01:12:00",1109233,1.508,189.6,1.936,0.129,12.57,105.4366,13.19,14.19,69.9,0,110.5,13.31,13.99,151.6
"2009-07-31 01:12:30",1109234,1.833,193.3,2.532,0.033,12.85,105.4381,13.19,14.21,70.18,0,110.5,13.31,13.99,155.3
"2009-07-31 01:13:00",1109235,1.9,198.7,1.836,0.054,13.11,105.4405,13.2,14.21,70.01,0,110.4,13.32,14.00,160.7
"2009-07-31 01:13:30",1109236,1.78,206,2.886,0.086,13.08,105.4396,13.2,14.21,69.95,0,110.4,13.32,14.00,168.0
"2009-07-31 01:14:00",1109237,2.188,211.6,5.47,0.728,13.99,105.4402,13.2,14.33,70.57,0,110.4,13.28,14.00,173.6
"2009-07-31 01:14:30",1109238,4.565,220.4,7.808,0.88,17.73,105.4428,13.21,14.56,71.01,0,110.4,13.28,14.00,182.4
"2009-07-31 01:15:00",1109239,4.034,232.1,6.091,1.298,16.05,105.4524,13.23,14.47,71.56,0,110.5,13.28,14.03,194.1
"2009-07-31 01:15:30",1109240,2.717,223.4,5.173,0.874,13.24,105.4677,13.27,14.41,72.07,0,110.5,13.28,14.07,185.4
"2009-07-31 01:16:00",1109241,2.652,220.5,6.462,1.158,12.48,105.4753,13.29,14.25,72.26,0,110.5,13.27,14.09,182.5
"2009-07-31 01:16:30",1109242,2.522,202.1,9.9,0.295,11.44,105.4767,13.29,14.26,72.42,0,110.5,13.31,14.09,164.1
"2009-07-31 01:17:00",1109243,2.622,208,5.725,0.154,11.59,105.4767,13.29,14.27,72.03,0,110.5,13.31,14.09,170.0
"2009-07-31 01:17:30",1109244,2.616,206.9,3.566,0.2,11.71,105.4767,13.29,14.27,71.87,0,110.5,13.31,14.09,168.9
"2009-07-31 01:18:00",1109245,2.738,209.6,6.198,0.704,12.78,105.4767,13.29,14.41,72.4,0,110.5,13.28,14.09,171.6
"2009-07-31 01:18:30",1109246,3.199,207.3,6.848,1.298,13.83,105.4767,13.29,14.34,72.47,0,110.5,13.28,14.09,169.3
"2009-07-31 01:19:00",1109247,2.969,186.4,8.54,0.935,13.75,105.4767,13.29,14.42,72.57,0,110.5,13.28,14.09,148.4
"2009-07-31 01:19:30",1109248,2.798,174.8,2.701,0.09,12.76,105.4767,13.29,14.3,71.85,0,110.5,13.31,14.09,136.8
"2009-07-31 01:20:00",1109249,3.47,177.4,5.665,1.233,14.3,105.4767,13.29,14.37,71.59,0,110.5,13.28,14.09,139.4
"2009-07-31 01:20:30",1109250,5.015,187.9,3.708,0.766,17.22,105.4767,13.29,14.6,71.56,0,110.5,13.28,14.09,149.9
"2009-07-31 01:21:00",1109251,3.604,189.8,8.19,1.195,14.49,105.4767,13.29,14.49,71.31,0,110.5,13.27,14.09,151.8
"2009-07-31 01:21:30",1109252,2.043,205.6,4.692,0.371,11.72,105.4767,13.29,14.36,71.1,0,110.5,13.31,14.09,167.6
"2009-07-31 01:22:00",1109253,1.418,192.5,8.85,0.153,11.69,105.4767,13.29,14.32,71.07,0,110.5,13.31,14.09,154.5
"2009-07-31 01:22:30",1109254,1.666,190.1,2.007,0.066,11.69,105.4767,13.29,14.32,71.04,0,110.5,13.31,14.09,152.1
"2009-07-31 01:23:00",1109255,1.296,202.5,17.2,0.146,11.59,105.4767,13.29,14.33,70.97,0,110.5,13.31,14.09,164.5
"2009-07-31 01:23:30",1109256,1.223,225.8,3.999,0.133,11.59,105.4772,13.29,14.34,71.2,0,110.5,13.31,14.09,187.8
"2009-07-31 01:24:00",1109257,1.286,232,2.894,0.156,12.08,105.4803,13.3,14.35,71.33,0,110.5,13.31,14.10,194.0
"2009-07-31 01:24:30",1109258,1.403,238.2,7.901,0.108,12.22,105.4879,13.32,14.35,71.32,0,110.5,13.31,14.12,200.2
"2009-07-31 01:25:00",1109259,0.945,234.5,5.517,0.07,12.45,105.4964,13.34,14.36,71.41,0,110.5,13.31,14.14,196.5
"2009-07-31 01:25:30",1109260,1.022,234.6,4.036,0.042,12.8,105.504,13.36,14.36,71.5,0,110.5,13.31,14.16,196.6
"2009-07-31 01:26:00",1109261,1.227,247.7,4.817,0.133,12.69,105.5102,13.38,14.36,71.32,0,110.5,13.31,14.18,209.7
"2009-07-31 01:26:30",1109262,1.799,272.7,12.55,0.322,12.93,105.5105,13.38,14.38,71.33,0,110.5,13.31,14.18,234.7
"2009-07-31 01:27:00",1109263,1.599,284.1,9.81,0.261,13.12,105.5094,13.38,14.43,72.03,0,110.5,13.31,14.18,246.1
"2009-07-31 01:27:30",1109264,2.34,280,10.43,1.489,15.34,105.4995,13.35,14.46,72,0,110.5,13.27,14.15,242.0
"2009-07-31 01:28:00",1109265,0.903,260.9,9.96,0.098,13.43,105.504,13.36,14.47,72.03,0,110.5,13.31,14.16,222.9
"2009-07-31 01:28:30",1109266,0.881,233.3,8.8,0.22,12.74,105.5099,13.38,14.37,72.24,0,110.5,13.31,14.18,195.3
"2009-07-31 01:29:00",1109267,0.698,235.6,17.29,0.154,12.67,105.5105,13.38,14.36,72.19,0,110.5,13.31,14.18,197.6
"2009-07-31 01:29:30",1109268,0.506,251.1,8.46,0.095,12.81,105.5105,13.38,14.38,72.11,0,110.5,13.31,14.18,213.1
"2009-07-31 01:30:00",1109269,0.571,208.5,14.57,0.149,12.81,105.5105,13.38,14.38,72.23,0,110.5,13.31,14.18,170.5
"2009-07-31 01:30:30",1109270,0.732,196.4,2.82,0.029,12.91,105.5105,13.38,14.39,71.89,0,110.5,13.32,14.18,158.4
"2009-07-31 01:31:00",1109271,0.779,199.1,4.814,0.04,13.03,105.5105,13.38,14.39,71.34,0,110.5,13.32,14.18,161.1
"2009-07-31 01:31:30",1109272,1.505,209.9,7.967,1.175,14.46,105.5105,13.38,14.51,70.94,0,110.5,13.28,14.18,171.9
"2009-07-31 01:32:00",1109273,1.694,206.5,7.218,1.102,13.84,105.5105,13.38,14.47,70.51,0,110.5,13.28,14.18,168.5
"2009-07-31 01:32:30",1109274,2.145,207.7,6.516,1.275,14.99,105.5105,13.38,14.45,70.19,0,110.5,13.28,14.18,169.7
"2009-07-31 01:33:00",1109275,1.854,208,6.675,1.199,14.81,105.5119,13.38,14.59,69.93,0,110.5,13.28,14.18,170.0
"2009-07-31 01:33:30",1109276,1.02,206.3,0.898,0.047,12.8,105.5217,13.41,14.4,69.48,0,110.5,13.31,14.21,168.3
"2009-07-31 01:34:00",1109277,0.936,207.8,1.816,0.058,12.38,105.5302,13.43,14.41,69.28,0,110.5,13.31,14.23,169.8
"2009-07-31 01:34:30",1109278,0.881,207.4,1.302,0.04,12.3,105.533,13.44,14.42,69.23,0,110.5,13.31,14.24,169.4
"2009-07-31 01:35:00",1109279,0.875,208.7,1.116,0.032,12.45,105.5434,13.46,14.47,69.12,0,110.5,13.28,14.26,170.7
"2009-07-31 01:35:30",1109280,2.089,215.1,7.465,1.352,14.89,105.5443,13.47,14.55,69.03,0,110.5,13.28,14.26,177.1
"2009-07-31 01:36:00",1109281,0.945,208.7,3.143,0.059,12.29,105.5443,13.47,14.44,68.94,0,110.5,13.31,14.26,170.7
"2009-07-31 01:36:30",1109282,1.048,214.8,1.057,0.053,11.94,105.5443,13.47,14.44,68.94,0,110.5,13.31,14.26,176.8
"2009-07-31 01:37:00",1109283,2.17,220.4,7.476,1.314,14.08,105.5443,13.47,14.54,69.03,0,110.5,13.28,14.26,182.4
"2009-07-31 01:37:30",1109284,1.761,220.1,5.672,1.179,14.24,105.5443,13.47,14.59,69.05,0,110.5,13.28,14.26,182.1
"2009-07-31 01:38:00",1109285,1.181,217.7,3.084,0.678,12.87,105.5443,13.47,14.47,68.87,0,110.5,13.28,14.26,179.7
"2009-07-31 01:38:30",1109286,0.98,215.3,0.706,0.033,12.27,105.5443,13.47,14.46,68.82,0,110.5,13.31,14.26,177.3
"2009-07-31 01:39:00",1109287,0.932,215.3,0.599,0.023,12.36,105.5443,13.47,14.49,68.76,0,110.5,13.31,14.26,177.3
"2009-07-31 01:39:30",1109288,0.846,215.9,0.722,0.054,12.82,105.5443,13.47,14.49,68.72,0,110.5,13.31,14.26,177.9
"2009-07-31 01:40:00",1109289,0.721,216.2,0.67,0.038,13.02,105.5443,13.47,14.49,68.69,0,110.5,13.32,14.26,178.2
"2009-07-31 01:40:30",1109290,0.718,214.3,2.575,0.25,13.53,105.5443,13.47,14.61,68.78,0,110.5,13.31,14.26,176.3
"2009-07-31 01:41:00",1109291,1.744,224.8,3.595,1.344,14.85,105.5443,13.47,14.55,68.78,0,110.5,13.27,14.26,186.8
"2009-07-31 01:41:30",1109292,1.159,238.7,7.026,0.87,14,105.5443,13.47,14.67,68.99,0,110.5,13.27,14.26,200.7
"2009-07-31 01:42:00",1109293,2.346,267.5,12.23,1.45,15.27,105.5443,13.47,14.6,69.04,0,110.5,13.27,14.26,229.5
"2009-07-31 01:42:30",1109294,0.936,255.1,9.24,0.088,12.69,105.5443,13.47,14.48,69.25,0,110.5,13.31,14.26,217.1
"2009-07-31 01:43:00",1109295,1.066,260,7.283,0.121,12.42,105.5434,13.46,14.48,69.48,0,110.5,13.31,14.26,222.0
"2009-07-31 01:43:30",1109296,0.949,252,6.98,0.249,12.75,105.5341,13.44,14.58,69.81,0,110.5,13.31,14.24,214.0
"2009-07-31 01:44:00",1109297,2.171,251.9,5.571,1.23,14.28,105.5212,13.41,14.5,69.73,0,110.5,13.27,14.21,213.9
"2009-07-31 01:44:30",1109298,1.433,253.8,5.936,0.195,12.31,105.5105,13.38,14.46,69.73,0,110.5,13.31,14.18,215.8
"2009-07-31 01:45:00",1109299,2.578,262.2,9.43,1.369,14.25,105.5105,13.38,14.5,69.96,0,110.5,13.27,14.18,224.2
"2009-07-31 01:45:30",1109300,2.417,261,7.266,1.309,14.58,105.5079,13.37,14.59,70.22,0,110.5,13.27,14.17,223.0
"2009-07-31 01:46:00",1109301,1.382,251.8,3.351,0.074,12.32,105.484,13.31,14.43,70.21,0,110.5,13.31,14.11,213.8
"2009-07-31 01:46:30",1109302,1.315,258.2,5.641,0.109,12.39,105.4767,13.29,14.41,70.34,0,110.5,13.32,14.09,220.2
"2009-07-31 01:47:00",1109303,1.63,260,5.036,0.302,12.52,105.4767,13.29,14.38,70.41,0,110.5,13.32,14.09,222.0